Mitchell, SD

11:13 PM CDT on September 30, 2016 (GMT -0500)
Mitchell Municipal

Weather History for KMHE - August, 2013

Change the Weather History Date:

Thursday, August 1, 2013

  Actual Average Record
Temperature  
Mean Temperature 73 °F 74 °F  
Max Temperature 86 °F 85 °F 109 °F (1901)
Min Temperature 59 °F 63 °F 46 °F (1904)
Degree Days  
Heating Degree Days 0 0  
Month to date heating degree days 0 0  
Since 1 June heating degree days 70 40  
Since 1 July heating degree days 20 5  
Cooling Degree Days 8 9  
Month to date cooling degree days 8 9  
Year to date cooling degree days 520 527  
Since 1 June cooling degree days 463 487  
Growing Degree Days 23 (Base 50)    
Moisture  
Dew Point 62 °F    
Average Humidity 72    
Maximum Humidity 93    
Minimum Humidity 51    
Precipitation  
Precipitation 0.00 in 0.06 in 2.24 in (1921)
Month to date precipitation 0.00 0.06  
Year to date precipitation 15.96 14.03  
Snow  
Snow 0.00 in - 0.00 in ()
Month to date snowfall 0.0  
Since 1 June snowfall 0.0  
Since 1 July snowfall 0.0  
Snow Depth 0.00 in    
Sea Level Pressure  
Sea Level Pressure 29.98 in    
Wind  
Wind Speed 4 mph (SSW)    
Max Wind Speed 12 mph    
Max Gust Speed 15 mph    
Visibility 10 miles    
Events      
T = Trace of Precipitation, MM = Missing Value Source: NWS Daily Summary

Daily Weather History Graph

Daily Weather History Graph

Search for Another Location

Airport or City:

Trip Planner

Search our weather history database for the weather conditions in past years. The results will help you decide how hot, cold, wet, or windy it might be!

Date:

Astronomy

Aug. 01, 2013 Rise Set
Actual Time 6:21 AM CDT 8:54 PM CDT
Civil Twilight 5:48 AM CDT 9:27 PM CDT
Nautical Twilight 5:07 AM CDT 10:08 PM CDT
Astronomical Twilight 4:20 AM CDT 10:54 PM CDT
Moon 1:57 AM CDT 5:06 PM CDT
Length of Visible Light 15h 39m
Length of Day
14h 33m
Waning Crescent, 23% of the Moon is Illuminated
Aug 1
Waning Crescent
Aug 6
New
Aug 14
First Quarter
Aug 20
Full
Aug 28
Last Quarter

Hourly Weather History & Observations

Time (CDT) Temp. Heat Index Dew Point Humidity Pressure Visibility Wind Dir Wind Speed Gust Speed Precip Events Conditions
12:53 AM 64.9 °F - 61.0 °F 87% 30.08 in 10.0 mi Calm Calm - N/A   Clear
1:53 AM 63.0 °F - 60.1 °F 90% 30.06 in 10.0 mi South 3.5 mph - N/A   Clear
2:53 AM 63.0 °F - 57.9 °F 84% 30.06 in 10.0 mi SSW 3.5 mph - N/A   Clear
3:53 AM 63.0 °F - 57.9 °F 84% 30.05 in 10.0 mi Calm Calm - N/A   Clear
4:53 AM 63.0 °F - 57.9 °F 84% 30.04 in 10.0 mi SSW 4.6 mph - N/A   Clear
5:53 AM 62.1 °F - 57.9 °F 86% 30.04 in 10.0 mi SSW 3.5 mph - N/A   Partly Cloudy
6:53 AM 62.1 °F - 57.9 °F 86% 30.03 in 10.0 mi Calm Calm - N/A   Clear
7:53 AM 66.0 °F - 61.0 °F 84% 30.04 in 10.0 mi WSW 4.6 mph - N/A   Clear
8:53 AM 73.0 °F - 63.0 °F 71% 30.03 in 10.0 mi West 9.2 mph - N/A   Clear
9:53 AM 73.9 °F - 66.0 °F 76% 30.03 in 10.0 mi NNW 5.8 mph - N/A   Scattered Clouds
10:53 AM 75.9 °F - 64.9 °F 69% 30.03 in 10.0 mi Calm Calm - N/A   Scattered Clouds
11:53 AM 79.0 °F - 64.0 °F 60% 30.02 in 10.0 mi Calm Calm - N/A   Clear
12:53 PM 82.0 °F 83.4 °F 64.0 °F 54% 30.00 in 10.0 mi Calm Calm - N/A   Mostly Cloudy
1:53 PM 84.0 °F 85.4 °F 64.0 °F 51% 29.98 in 10.0 mi Calm Calm - N/A   Clear
2:53 PM 84.0 °F 85.8 °F 64.9 °F 53% 29.94 in 10.0 mi Calm Calm - N/A   Mostly Cloudy
3:53 PM 84.0 °F 85.8 °F 64.9 °F 53% 29.93 in 10.0 mi NE 8.1 mph - N/A   Clear
4:53 PM 82.0 °F 83.8 °F 64.9 °F 56% 29.92 in 10.0 mi South 3.5 mph - N/A   Scattered Clouds
5:53 PM 79.0 °F - 66.9 °F 66% 29.92 in 10.0 mi North 5.8 mph - N/A   Mostly Cloudy
6:53 PM 79.0 °F - 64.0 °F 60% 29.89 in 10.0 mi East 6.9 mph - N/A   Partly Cloudy
7:53 PM 77.0 °F - 64.0 °F 64% 29.89 in 10.0 mi SW 6.9 mph - N/A   Clear
8:53 PM 73.9 °F - 64.0 °F 71% 29.90 in 10.0 mi Calm Calm - N/A   Clear
9:53 PM 66.9 °F - 63.0 °F 87% 29.91 in 10.0 mi Calm Calm - N/A   Clear
10:53 PM 66.0 °F - 63.0 °F 90% 29.90 in 10.0 mi East 4.6 mph - N/A   Clear
11:53 PM 64.9 °F - 62.1 °F 90% 29.88 in 10.0 mi NE 6.9 mph - N/A   Clear